| time (UTC) | temp F | wind direction | speed knots | gust knots | rain 1hr in | rain 24hr in | rain mn in | humidity % | barometer mb |
| 20260510174513 | 46 | 25 | 0.0 | 0.0 | 0.00 | 0.00 | 0.00 | 99 | 1031.6 |
| 20260510173011 | 46 | 25 | 0.0 | 0.0 | 0.00 | 0.00 | 0.00 | 99 | 1031.7 |
| 20260510171511 | 46 | 25 | 0.0 | 0.0 | 0.00 | 0.00 | 0.00 | 99 | 1031.8 |
| 20260510170018 | 46 | 25 | 0.0 | 0.0 | 0.00 | 0.00 | 0.00 | 99 | 1031.8 |
| 20260510164510 | 46 | 25 | 0.0 | 0.0 | 0.00 | 0.00 | 0.00 | 99 | 1031.8 |
| 20260510163008 | 46 | 25 | 0.0 | 0.0 | 0.00 | 0.00 | 0.00 | 99 | 1031.8 |
| 20260510161508 | 46 | 29 | 0.0 | 0.9 | 0.00 | 0.00 | 0.00 | 99 | 1031.8 |
| 20260510160008 | 46 | 317 | 0.0 | 0.0 | 0.00 | 0.00 | 0.00 | 99 | 1031.8 |
| 20260510154507 | 46 | 317 | 0.0 | 0.0 | 0.00 | 0.00 | 0.00 | 99 | 1031.8 |
| 20260510153014 | 46 | 317 | 0.0 | 0.0 | 0.00 | 0.00 | 0.00 | 99 | 1031.9 |
| 20260510151505 | 46 | 316 | 0.0 | 0.0 | 0.00 | 0.00 | 0.00 | 99 | 1031.8 |
| 20260510150004 | 46 | 316 | 0.0 | 0.0 | 0.00 | 0.00 | 0.00 | 99 | 1031.8 |
| 20260510144508 | 46 | 316 | 0.0 | 0.0 | 0.00 | 0.00 | 0.00 | 99 | 1031.8 |
| 20260510143002 | 46 | 316 | 0.0 | 0.0 | 0.00 | 0.00 | 0.00 | 98 | 1031.8 |
| 20260510141502 | 46 | 9 | 0.0 | 1.7 | 0.00 | 0.00 | 0.00 | 98 | 1031.8 |
| 20260510140058 | 48 | 160 | 0.0 | 0.0 | 0.00 | 0.00 | 0.00 | 99 | 1031.8 |
| 20260510134558 | 48 | 160 | 0.0 | 0.0 | 0.00 | 0.00 | 0.00 | 99 | 1031.8 |
| 20260510133058 | 48 | 160 | 0.0 | 0.0 | 0.00 | 0.00 | 0.00 | 99 | 1031.9 |
| 20260510131556 | 48 | 160 | 0.0 | 0.0 | 0.00 | 0.00 | 0.00 | 99 | 1031.9 |
| 20260510130059 | 48 | 160 | 0.0 | 0.0 | 0.00 | 0.00 | 0.00 | 99 | 1031.9 |
| 20260510124656 | 48 | 160 | 0.0 | 0.0 | 0.00 | 0.00 | 0.00 | 99 | 1032.0 |
| 20260510123054 | 48 | 160 | 0.0 | 0.0 | 0.00 | 0.00 | 0.00 | 99 | 1032.1 |
| 20260510121555 | 48 | 160 | 0.0 | 0.0 | 0.00 | 0.00 | 0.00 | 99 | 1032.1 |
| 20260510120054 | 48 | 160 | 0.0 | 0.0 | 0.00 | 0.00 | 0.00 | 99 | 1032.1 |
| 20260510114552 | 47 | 160 | 0.0 | 0.0 | 0.00 | 0.00 | 0.00 | 99 | 1032.0 |
| 20260510113051 | 47 | 160 | 0.0 | 0.0 | 0.00 | 0.00 | 0.00 | 99 | 1031.9 |
| 20260510111551 | 47 | 160 | 0.0 | 0.0 | 0.00 | 0.00 | 0.00 | 99 | 1031.9 |
| 20260510110053 | 47 | 160 | 0.0 | 0.9 | 0.00 | 0.00 | 0.00 | 99 | 1031.7 |
| 20260510104554 | 48 | 146 | 0.0 | 1.7 | 0.00 | 0.00 | 0.00 | 99 | 1031.7 |
| 20260510103046 | 49 | 219 | 0.0 | 1.7 | 0.00 | 0.00 | 0.00 | 99 | 1031.6 |
| 20260510101547 | 49 | 161 | 0.0 | 0.0 | 0.00 | 0.00 | 0.00 | 99 | 1031.6 |
| 20260510100045 | 49 | 161 | 0.0 | 0.0 | 0.00 | 0.00 | 0.00 | 99 | 1031.6 |
| 20260510094544 | 49 | 161 | 0.0 | 0.0 | 0.00 | 0.00 | 0.00 | 99 | 1031.6 |
| 20260510093047 | 49 | 161 | 0.0 | 0.0 | 0.00 | 0.00 | 0.00 | 99 | 1031.6 |
| 20260510091551 | 49 | 161 | 0.0 | 0.0 | 0.00 | 0.00 | 0.00 | 99 | 1031.4 |
| 20260510090046 | 50 | 161 | 0.0 | 0.0 | 0.00 | 0.00 | 0.00 | 99 | 1031.2 |
| 20260510084544 | 50 | 170 | 0.0 | 0.9 | 0.00 | 0.00 | 0.00 | 99 | 1031.1 |
| 20260510083053 | 50 | 231 | 0.0 | 0.9 | 0.00 | 0.00 | 0.00 | 99 | 1031.0 |
| 20260510081542 | 50 | 158 | 0.0 | 2.6 | 0.00 | 0.00 | 0.00 | 99 | 1030.9 |
| 20260510080045 | 50 | 175 | 0.0 | 1.7 | 0.00 | 0.00 | 0.00 | 99 | 1030.6 |
| 20260510074540 | 50 | 161 | 0.0 | 1.7 | 0.00 | 0.00 | 0.00 | 99 | 1030.5 |
| 20260510073038 | 50 | 193 | 0.0 | 1.7 | 0.00 | 0.00 | 0.00 | 99 | 1030.5 |
| 20260510071540 | 50 | 143 | 0.0 | 1.7 | 0.00 | 0.00 | 0.00 | 99 | 1030.3 |
| 20260510070038 | 50 | 165 | 0.0 | 2.6 | 0.00 | 0.00 | 0.00 | 98 | 1030.3 |
| 20260510064540 | 51 | 188 | 0.0 | 2.6 | 0.00 | 0.00 | 0.00 | 98 | 1030.2 |
| 20260510063052 | 51 | 181 | 1.7 | 4.3 | 0.00 | 0.00 | 0.00 | 98 | 1030.2 |
| 20260510061537 | 51 | 106 | 0.0 | 2.6 | 0.00 | 0.00 | 0.00 | 98 | 1030.1 |
| 20260510060037 | 51 | 115 | 0.9 | 3.5 | 0.00 | 0.00 | 0.00 | 98 | 1030.1 |
| 20260510054535 | 52 | 175 | 0.0 | 4.3 | 0.00 | 0.00 | 0.00 | 98 | 1030.0 |
| 20260510053034 | 52 | 187 | 1.7 | 3.5 | 0.00 | 0.00 | 0.00 | 98 | 1029.9 |
| 20260510051534 | 52 | 186 | 0.0 | 3.5 | 0.00 | 0.00 | 0.00 | 98 | 1030.0 |
| 20260510050042 | 52 | 198 | 0.9 | 3.5 | 0.00 | 0.00 | 0.00 | 98 | 1030.0 |
| 20260510044532 | 52 | 160 | 0.9 | 2.6 | 0.00 | 0.00 | 0.00 | 98 | 1030.0 |
| 20260510043032 | 52 | 164 | 0.0 | 4.3 | 0.00 | 0.00 | 0.00 | 97 | 1030.0 |
| 20260510041532 | 52 | 139 | 0.9 | 4.3 | 0.00 | 0.00 | 0.00 | 97 | 1030.0 |
| 20260510040032 | 52 | 173 | 2.6 | 4.3 | 0.00 | 0.00 | 0.00 | 97 | 1030.0 |
| 20260510034530 | 52 | 203 | 0.9 | 5.2 | 0.00 | 0.00 | 0.00 | 96 | 1030.2 |
| 20260510033029 | 52 | 205 | 0.9 | 4.3 | 0.00 | 0.00 | 0.00 | 96 | 1030.2 |
| 20260510031528 | 52 | 144 | 1.7 | 4.3 | 0.00 | 0.00 | 0.00 | 96 | 1030.3 |
| 20260510030026 | 52 | 199 | 1.7 | 3.5 | 0.00 | 0.00 | 0.00 | 96 | 1030.4 |
| 20260510024527 | 52 | 177 | 1.7 | 4.3 | 0.00 | 0.00 | 0.00 | 95 | 1030.4 |
| 20260510023024 | 53 | 147 | 2.6 | 5.2 | 0.00 | 0.00 | 0.00 | 96 | 1030.4 |
| 20260510021525 | 52 | 216 | 1.7 | 3.5 | 0.00 | 0.00 | 0.00 | 97 | 1030.8 |
| 20260510020019 | 51 | 243 | 0.9 | 3.5 | 0.00 | 0.00 | 0.00 | 98 | 1031.1 |
| 20260510014515 | 51 | 210 | 0.0 | 1.7 | 0.00 | 0.00 | 0.00 | 99 | 1031.3 |
| 20260510013013 | 50 | 141 | 0.9 | 2.6 | 0.00 | 0.00 | 0.00 | 99 | 1031.5 |
| 20260510011513 | 50 | 133 | 0.9 | 2.6 | 0.00 | 0.00 | 0.00 | 99 | 1031.6 |
| 20260510010011 | 50 | 198 | 0.9 | 2.6 | 0.00 | 0.00 | 0.00 | 99 | 1031.6 |
| 20260510004511 | 50 | 237 | 0.0 | 3.5 | 0.00 | 0.00 | 0.00 | 99 | 1031.6 |
| 20260510003010 | 49 | 148 | 0.9 | 1.7 | 0.00 | 0.00 | 0.00 | 99 | 1031.6 |
| 20260510001509 | 49 | 227 | 0.0 | 1.7 | 0.00 | 0.00 | 0.00 | 99 | 1031.6 |
| 20260510000107 | 49 | 133 | 0.0 | 2.6 | 0.00 | 0.00 | 0.00 | 99 | 1031.6 |
| 20260509234520 | 49 | 167 | 0.0 | 2.6 | 0.00 | 0.00 | 0.00 | 99 | 1031.5 |
| 20260509233007 | 49 | 125 | 0.0 | 1.7 | 0.00 | 0.00 | 0.00 | 99 | 1031.5 |
| 20260509231509 | 49 | 172 | 0.0 | 1.7 | 0.00 | 0.00 | 0.00 | 99 | 1031.6 |
| 20260509230004 | 49 | 152 | 0.0 | 0.9 | 0.00 | 0.00 | 0.00 | 99 | 1031.5 |
| 20260509224508 | 48 | 156 | 0.0 | 0.9 | 0.00 | 0.00 | 0.00 | 99 | 1031.4 |
| 20260509223001 | 48 | 182 | 0.0 | 0.9 | 0.00 | 0.00 | 0.00 | 99 | 1031.3 |
| 20260509221601 | 48 | 175 | 0.0 | 1.7 | 0.00 | 0.00 | 0.00 | 99 | 1031.2 |
| 20260509220057 | 48 | 158 | 0.0 | 0.9 | 0.00 | 0.00 | 0.00 | 99 | 1030.9 |
| 20260509214556 | 48 | 141 | 0.9 | 2.6 | 0.00 | 0.00 | 0.00 | 99 | 1030.7 |
| 20260509213056 | 48 | 167 | 0.0 | 2.6 | 0.00 | 0.00 | 0.00 | 99 | 1030.5 |
| 20260509211551 | 48 | 176 | 0.9 | 2.6 | 0.00 | 0.00 | 0.00 | 99 | 1030.4 |
| 20260509210057 | 48 | 168 | 0.0 | 2.6 | 0.00 | 0.00 | 0.00 | 99 | 1030.2 |
| 20260509204545 | 48 | 162 | 0.9 | 2.6 | 0.00 | 0.00 | 0.00 | 99 | 1030.0 |
| 20260509203053 | 48 | 224 | 0.0 | 1.7 | 0.00 | 0.00 | 0.00 | 99 | 1029.9 |
| 20260509201541 | 48 | 193 | 0.0 | 2.6 | 0.00 | 0.00 | 0.00 | 99 | 1029.7 |
| 20260509200039 | 48 | 146 | 0.0 | 1.7 | 0.00 | 0.00 | 0.00 | 99 | 1029.6 |
| 20260509194538 | 48 | 170 | 0.0 | 1.7 | 0.00 | 0.00 | 0.00 | 99 | 1029.5 |
| 20260509193036 | 48 | 157 | 0.0 | 2.6 | 0.00 | 0.00 | 0.00 | 99 | 1029.4 |
| 20260509191534 | 47 | 189 | 0.0 | 0.9 | 0.00 | 0.00 | 0.00 | 99 | 1029.2 |
| 20260509190032 | 47 | 165 | 0.0 | 0.9 | 0.00 | 0.00 | 0.00 | 99 | 1029.0 |
| 20260509184543 | 48 | 162 | 0.0 | 0.9 | 0.00 | 0.00 | 0.00 | 99 | 1028.9 |
| 20260509183029 | 48 | 124 | 0.0 | 2.6 | 0.00 | 0.00 | 0.00 | 99 | 1028.8 |
| 20260509181529 | 48 | 168 | 0.9 | 2.6 | 0.00 | 0.00 | 0.00 | 99 | 1028.7 |
| 20260509180048 | 49 | 125 | 1.7 | 4.3 | 0.00 | 0.00 | 0.00 | 99 | 1028.5 |